When you browse on this site, cookies collect data to enhance your experience and personalize the content and advertising you see.
Visit our Privacy Policy to learn more. By continuing to use the site, you agree to this use of cookies and data.
  • In Hungary
  • List of Countries
  • For 7 days
  • Water Temperature
  • Satellite Maps
  • Weather Map
  • News
  • Weather Widgets
  • user-avatar
    Login

    Hourly Weather Staniewo

    Today, 16 January, Wednesday

    Time Temperature Precipitation Wind Pressure Humidity
    00:00 -3°C° 0.7 mm 2 mps 733 mmHg 97%
    01:00 -2°C° 0 mm 1 mps 734 mmHg 97%
    02:00 -2°C° 0.1 mm 1 mps 735 mmHg 96%
    03:00 -4°C° 0.1 mm 2 mps 735 mmHg 95%
    04:00 -4°C° 0.1 mm 2 mps 736 mmHg 95%
    05:00 -4°C° 0 mm 2 mps 737 mmHg 94%
    06:00 -5°C° 0 mm 3 mps 737 mmHg 93%
    07:00 -5°C° 0 mm 3 mps 738 mmHg 92%
    08:00 -4°C° 0 mm 3 mps 739 mmHg 92%
    09:00 -2°C° 0 mm 3 mps 739 mmHg 91%
    10:00 -1°C° 0 mm 3 mps 740 mmHg 91%
    11:00 -1°C° 0 mm 3 mps 740 mmHg 94%
    12:00 -1°C° 0 mm 3 mps 740 mmHg 96%
    13:00 0°C° 0 mm 3 mps 740 mmHg 99%
    14:00 0°C° 0.1 mm 3 mps 740 mmHg 98%
    15:00 -1°C° 0.1 mm 4 mps 739 mmHg 98%
    16:00 -1°C° 0.1 mm 4 mps 739 mmHg 97%
    17:00 -1°C° 0.1 mm 4 mps 739 mmHg 96%
    18:00 0°C° 0.1 mm 4 mps 738 mmHg 95%
    19:00 0°C° 0.1 mm 5 mps 738 mmHg 94%
    20:00 0°C° 0.1 mm 5 mps 738 mmHg 95%
    21:00 -1°C° 0.1 mm 6 mps 738 mmHg 96%
    22:00 -1°C° 0.1 mm 6 mps 738 mmHg 97%
    23:00 -1°C° 0.1 mm 6 mps 737 mmHg 96%

    Tomorrow, 17 January, Thursday

    Time Temperature Precipitation Wind Pressure Humidity
    00:00 -1°C° 0.1 mm 6 mps 737 mmHg 96%
    01:00 -1°C° 0.1 mm 6 mps 737 mmHg 96%
    02:00 -1°C° 0.2 mm 6 mps 736 mmHg 95%
    03:00 -1°C° 0.2 mm 7 mps 735 mmHg 93%
    04:00 -1°C° 0.2 mm 7 mps 735 mmHg 92%
    05:00 -1°C° 0.1 mm 7 mps 734 mmHg 91%
    06:00 -1°C° 0.1 mm 7 mps 734 mmHg 89%
    07:00 -2°C° 0.1 mm 8 mps 733 mmHg 87%
    08:00 -2°C° 0.2 mm 8 mps 733 mmHg 87%
    09:00 -1°C° 0.2 mm 8 mps 733 mmHg 86%
    10:00 -1°C° 0.2 mm 8 mps 733 mmHg 85%
    11:00 -1°C° 0.1 mm 8 mps 733 mmHg 87%
    12:00 -1°C° 0.1 mm 7 mps 733 mmHg 88%
    13:00 0°C° 0.1 mm 7 mps 733 mmHg 90%
    14:00 -1°C° 0 mm 7 mps 733 mmHg 88%
    15:00 -1°C° 0 mm 6 mps 734 mmHg 86%
    16:00 -1°C° 0 mm 6 mps 734 mmHg 84%
    17:00 -1°C° 0 mm 6 mps 734 mmHg 84%
    18:00 -1°C° 0 mm 6 mps 734 mmHg 83%
    19:00 -1°C° 0 mm 6 mps 734 mmHg 82%
    20:00 -1°C° 0 mm 6 mps 734 mmHg 83%
    21:00 -1°C° 0 mm 6 mps 734 mmHg 85%
    22:00 -1°C° 0 mm 6 mps 734 mmHg 86%
    23:00 -2°C° 0 mm 6 mps 734 mmHg 85%

    Day after tomorrow, 18 January, Friday

    Time Temperature Precipitation Wind Pressure Humidity
    00:00 -2°C° 0 mm 6 mps 734 mmHg 84%
    01:00 -2°C° 0 mm 6 mps 734 mmHg 83%
    02:00 -3°C° 0 mm 7 mps 734 mmHg 81%
    03:00 -4°C° 0 mm 8 mps 734 mmHg 78%
    04:00 -5°C° 0 mm 9 mps 734 mmHg 76%
    05:00 -5°C° 0.5 mm 9 mps 735 mmHg 80%
    06:00 -5°C° 0.5 mm 10 mps 735 mmHg 84%
    07:00 -5°C° 0.5 mm 10 mps 736 mmHg 89%
    08:00 -5°C° 0.4 mm 9 mps 737 mmHg 87%
    09:00 -5°C° 0.4 mm 8 mps 739 mmHg 85%
    10:00 -4°C° 0.4 mm 7 mps 740 mmHg 83%
    11:00 -4°C° 0.1 mm 7 mps 742 mmHg 81%
    12:00 -4°C° 0.1 mm 7 mps 743 mmHg 79%
    13:00 -4°C° 0.1 mm 7 mps 744 mmHg 77%
    14:00 -4°C° 0 mm 6 mps 745 mmHg 78%
    15:00 -4°C° 0 mm 6 mps 746 mmHg 79%
    16:00 -5°C° 0 mm 5 mps 746 mmHg 80%
    17:00 -5°C° 0 mm 5 mps 747 mmHg 81%
    18:00 -5°C° 0 mm 5 mps 747 mmHg 82%
    19:00 -5°C° 0 mm 5 mps 747 mmHg 82%
    20:00 -5°C° 0 mm 5 mps 748 mmHg 83%
    21:00 -5°C° 0 mm 5 mps 748 mmHg 84%
    22:00 -5°C° 0 mm 5 mps 748 mmHg 85%
    23:00 -5°C° 0.1 mm 6 mps 748 mmHg 86%

    19 January, Saturday

    Time Temperature Precipitation Wind Pressure Humidity
    00:00 -5°C° 0.1 mm 6 mps 748 mmHg 87%
    01:00 -4°C° 0.1 mm 7 mps 748 mmHg 88%
    02:00 -4°C° 0 mm 6 mps 748 mmHg 88%
    03:00 -5°C° 0 mm 5 mps 749 mmHg 89%
    04:00 -5°C° 0 mm 5 mps 749 mmHg 90%
    05:00 -4°C° 0 mm 4 mps 749 mmHg 91%
    06:00 -5°C° 0 mm 4 mps 749 mmHg 92%
    07:00 -5°C° 0 mm 3 mps 750 mmHg 94%
    08:00 -5°C° 0 mm 3 mps 750 mmHg 93%
    09:00 -4°C° 0 mm 3 mps 750 mmHg 92%
    10:00 -4°C° 0 mm 3 mps 750 mmHg 92%
    11:00 -2°C° 0 mm 3 mps 750 mmHg 91%
    12:00 -2°C° 0 mm 3 mps 750 mmHg 89%
    13:00 -2°C° 0 mm 4 mps 750 mmHg 88%
    14:00 -2°C° 0 mm 3 mps 749 mmHg 89%
    15:00 -4°C° 0 mm 3 mps 749 mmHg 91%
    16:00 -4°C° 0 mm 3 mps 749 mmHg 92%
    17:00 -4°C° 0 mm 3 mps 749 mmHg 92%
    18:00 -4°C° 0 mm 3 mps 749 mmHg 91%
    19:00 -4°C° 0 mm 4 mps 749 mmHg 91%
    20:00 -4°C° 0 mm 3 mps 749 mmHg 90%
    21:00 -4°C° 0 mm 3 mps 749 mmHg 90%
    22:00 -4°C° 0 mm 3 mps 749 mmHg 90%
    23:00 -5°C° 0 mm 3 mps 749 mmHg 89%

    20 January, Sunday

    Time Temperature Precipitation Wind Pressure Humidity
    00:00 -5°C° 0 mm 3 mps 749 mmHg 89%
    01:00 -6°C° 0 mm 3 mps 749 mmHg 89%
    02:00 -6°C° 0 mm 3 mps 749 mmHg 89%
    03:00 -6°C° 0 mm 3 mps 749 mmHg 90%
    04:00 -6°C° 0 mm 3 mps 748 mmHg 90%
    05:00 -6°C° 0 mm 3 mps 748 mmHg 90%
    06:00 -6°C° 0 mm 3 mps 748 mmHg 91%
    07:00 -6°C° 0 mm 3 mps 748 mmHg 91%
    08:00 -5°C° 0 mm 3 mps 748 mmHg 91%
    09:00 -5°C° 0 mm 3 mps 748 mmHg 91%
    10:00 -5°C° 0 mm 3 mps 749 mmHg 91%
    11:00 -4°C° 0 mm 3 mps 748 mmHg 91%
    12:00 -4°C° 0 mm 3 mps 748 mmHg 90%
    13:00 -2°C° 0 mm 3 mps 748 mmHg 90%
    14:00 -4°C° 0.1 mm 3 mps 748 mmHg 91%
    15:00 -4°C° 0.1 mm 3 mps 748 mmHg 92%
    16:00 -5°C° 0.1 mm 3 mps 747 mmHg 93%
    17:00 -4°C° 0.3 mm 3 mps 747 mmHg 93%
    18:00 -4°C° 0.3 mm 3 mps 748 mmHg 93%
    19:00 -4°C° 0.3 mm 4 mps 748 mmHg 93%
    20:00 -5°C° 0.1 mm 3 mps 748 mmHg 91%
    21:00 -5°C° 0.1 mm 3 mps 748 mmHg 88%
    22:00 -6°C° 0.1 mm 3 mps 748 mmHg 86%
    23:00 -7°C° 0 mm 3 mps 749 mmHg 86%

    21 January, Monday

    Time Temperature Precipitation Wind Pressure Humidity
    00:00 -7°C° 0 mm 3 mps 749 mmHg 86%
    01:00 -7°C° 0 mm 3 mps 749 mmHg 87%
    02:00 -7°C° 0 mm 3 mps 749 mmHg 87%
    03:00 -7°C° 0 mm 3 mps 750 mmHg 87%
    04:00 -7°C° 0 mm 3 mps 750 mmHg 87%
    05:00 -7°C° 0 mm 3 mps 750 mmHg 88%
    06:00 -7°C° 0 mm 3 mps 751 mmHg 89%
    07:00 -7°C° 0 mm 3 mps 751 mmHg 89%
    08:00 -6°C° 0.2 mm 3 mps 752 mmHg 90%
    09:00 -6°C° 0.2 mm 3 mps 752 mmHg 91%
    10:00 -5°C° 0.2 mm 3 mps 753 mmHg 91%
    11:00 -5°C° 0 mm 3 mps 753 mmHg 89%
    12:00 -5°C° 0 mm 3 mps 753 mmHg 87%
    13:00 -5°C° 0 mm 3 mps 754 mmHg 85%
    14:00 -6°C° 0 mm 3 mps 754 mmHg 87%
    15:00 -6°C° 0 mm 3 mps 754 mmHg 89%
    16:00 -7°C° 0 mm 3 mps 755 mmHg 91%
    17:00 -7°C° 0 mm 3 mps 755 mmHg 91%
    18:00 -7°C° 0 mm 3 mps 755 mmHg 90%
    19:00 -7°C° 0 mm 3 mps 755 mmHg 90%
    20:00 -8°C° 0 mm 3 mps 756 mmHg 90%
    21:00 -8°C° 0 mm 3 mps 756 mmHg 90%
    22:00 -8°C° 0 mm 3 mps 756 mmHg 89%
    23:00 -8°C° 0 mm 3 mps 756 mmHg 89%
    Show more